Location: Igri�s
(42.2144°N, 0.4320°W)
Time: 08:40:06
(UTC+00:00)

Cosmos 2237 Rocket - Pass Details

Date: 13 August 2020
Orbit: 836 x 849 km, 71.0° (Epoch: 18 September)

Event Time Altitude Azimuth Distance (km) Brightness Sun altitude
Rises 23:06:26 0° 343° (NNW) 3,407 6.5 -31.8°
Reaches altitude 10° 23:09:12 10° 354° (N) 2,466 5.5 -32.0°
Enters shadow 23:13:56 30° 51° (NE) 1,464 3.5 -32.2°
